GFSMA_500_spd_024.txt.gz
Wind_Speed
9 9 8 9 9 11 12 10 10 10 10 9 10 11 10 8 9 8 9 10 10 9 8 5 2 3 3 5 5 5 6 11 7 6 4 4 5 3 0 1 1 3 2
5 6 7 7 9 8 9 9 9 9 11 11 11 11 10 9 9 8 7 8 9 8 7 7 6 4 4 5 6 5 4 5 5 8 10 8 6 5 3 2 2 2 1
4 5 5 5 7 8 9 9 11 11 11 10 10 10 11 10 8 8 7 8 7 8 8 7 6 6 6 5 9 9 5 2 8 6 8 13 11 10 8 5 3 3 4
4 5 5 7 9 11 11 11 10 12 12 10 11 10 10 9 9 9 9 8 7 5 5 5 5 5 7 9 8 10 6 3 1 7 13 15 14 13 11 10 8 5 4
4 5 6 9 11 11 11 11 12 11 11 10 11 11 11 11 10 10 8 8 8 7 7 6 5 7 7 8 8 7 6 6 7 8 11 13 12 13 12 11 10 10 8
4 6 8 10 11 12 11 11 12 11 10 9 10 12 11 10 10 8 9 9 8 10 9 9 8 7 7 8 7 7 8 6 5 5 5 6 9 7 15 14 12 12 11
2 5 10 13 13 11 10 11 11 11 10 11 12 12 11 12 14 11 8 9 10 9 10 10 10 11 10 8 7 6 7 8 7 6 7 9 7 7 7 12 19 17 15
7 10 11 12 11 10 10 11 11 12 12 12 13 14 15 14 16 15 13 12 10 10 10 12 12 12 12 11 11 11 9 9 10 9 9 9 10 8 9 10 11 11 19
9 11 12 10 8 9 11 11 11 12 12 13 13 13 13 14 14 17 15 15 14 13 12 11 14 15 13 13 13 12 13 13 12 13 12 12 14 15 13 12 12 12 13
13 10 7 6 6 8 9 8 10 11 15 16 16 17 17 16 14 15 18 20 20 17 17 16 14 18 18 16 15 15 14 15 15 12 13 14 15 15 13 14 14 13 13
11 6 4 4 6 8 7 10 11 13 16 17 19 19 18 19 19 16 17 18 20 23 18 21 20 16 18 20 16 16 17 16 17 16 14 14 15 17 16 14 11 10 11
7 6 3 3 6 7 10 12 13 16 17 15 23 22 21 19 20 21 18 18 19 18 21 21 23 22 20 22 23 22 21 21 19 17 17 18 17 19 19 19 17 15 11
6 5 4 4 5 7 11 14 15 19 15 18 23 23 31 23 18 21 23 22 19 20 19 20 22 22 24 26 26 27 27 24 22 23 22 21 22 23 22 21 20 19 19
8 6 3 4 6 8 10 12 15 15 17 19 22 24 25 24 20 21 22 24 24 23 23 22 22 22 23 26 28 28 28 30 27 26 25 25 26 27 27 26 24 24 24
7 4 4 7 5 6 10 11 15 17 17 20 24 25 25 24 22 20 19 23 26 26 27 26 25 26 26 25 25 29 30 31 31 32 31 31 32 31 31 30 30 30 30
6 2 6 5 5 8 8 10 14 17 19 22 26 28 31 28 24 21 18 19 23 28 33 32 32 29 28 29 31 33 33 34 37 39 39 39 40 38 35 33 35 38 38
4 1 4 5 6 5 8 12 17 18 20 26 29 27 29 28 28 27 28 26 22 21 26 32 29 29 31 34 35 34 33 36 37 38 40 42 42 42 42 41 41 42 43
4 3 3 3 3 7 9 14 21 17 22 29 35 35 29 28 28 30 29 25 27 24 31 25 27 30 33 34 32 30 30 30 32 37 37 38 41 43 43 42 41 41 44
7 6 6 8 7 9 13 16 21 26 22 27 35 33 31 28 27 29 27 26 26 24 31 34 30 30 33 34 33 34 34 31 31 34 37 39 41 42 42 43 46 47 46
11 9 8 7 9 12 15 20 20 26 27 29 35 36 33 31 31 26 27 28 24 25 28 30 27 34 36 39 40 43 44 47 37 37 41 41 42 43 43 45 50 48 51
14 14 11 11 11 14 16 20 22 26 31 34 37 40 37 31 28 26 25 29 33 29 28 26 27 34 39 39 48 46 44 42 40 43 48 50 52 50 48 50 51 53 55
17 18 16 14 12 14 18 23 26 27 31 33 38 38 32 30 30 30 27 30 31 32 34 35 36 34 39 42 49 49 46 44 49 50 52 54 55 55 58 62 63 62 62
25 24 21 17 15 17 20 25 29 31 32 36 39 40 33 33 32 31 30 30 34 37 37 40 41 43 48 51 49 49 52 54 54 51 48 47 52 54 58 60 60 62 63
22 20 20 18 19 19 23 27 31 33 35 39 42 42 35 35 35 35 38 36 36 40 42 44 46 46 44 50 51 52 51 51 46 47 52 53 53 52 51 48 46 47 48
28 24 22 21 21 22 26 29 34 35 40 45 45 42 36 36 39 40 39 39 41 43 43 45 45 45 45 47 50 49 50 50 52 48 52 50 49 44 41 38 41 44 44
34 30 27 26 25 27 29 33 35 38 42 47 44 39 37 39 42 43 41 43 44 45 42 43 49 45 46 46 49 51 55 52 48 46 46 41 41 41 37 37 39 41 42

GFSMA_500_spd_027.txt.gz
Wind_Speed
10 9 10 10 9 11 11 11 13 13 14 13 11 10 10 10 8 8 8 8 7 6 5 3 2 3 4 4 2 5 5 9 13 8 5 4 3 1 1 3 2 2 1
9 6 8 9 10 10 11 12 11 11 10 10 10 10 10 10 10 9 9 9 7 7 6 6 5 5 6 7 5 6 6 4 8 12 11 9 8 5 4 4 4 3 2
7 4 7 8 8 9 10 9 10 10 8 8 8 9 10 12 12 10 9 9 9 7 5 4 4 5 5 6 8 10 12 8 9 3 2 9 14 11 9 7 6 5 4
6 5 7 6 9 10 11 10 11 12 10 9 8 6 8 8 10 11 9 10 10 9 9 8 6 5 6 7 6 8 12 6 1 4 4 9 14 14 11 11 8 6 4
3 4 5 9 13 14 12 12 10 10 10 8 8 6 5 6 6 8 8 9 11 12 10 9 9 8 8 8 8 5 7 9 11 8 7 4 10 12 12 11 11 10 8
1 2 5 9 13 12 11 11 11 11 10 10 9 8 8 9 7 6 8 8 10 11 12 12 10 10 11 11 8 7 5 5 8 8 10 10 8 4 8 14 13 13 12
0 5 9 12 11 9 9 10 9 8 9 10 10 9 9 8 6 7 9 8 9 10 11 12 11 10 10 11 12 9 10 10 9 9 8 7 7 8 8 15 16 16 14
3 8 10 12 7 6 7 9 11 13 13 15 14 13 13 13 9 7 9 11 12 12 13 13 14 13 12 12 11 12 12 12 13 12 11 11 10 9 11 11 4 9 13
7 11 12 10 7 7 8 10 11 14 17 17 17 16 16 15 14 10 9 10 13 15 15 15 15 15 14 14 14 12 14 14 13 15 16 13 14 13 13 13 13 11 10
9 11 9 9 9 9 8 7 12 13 15 15 16 18 16 16 16 15 12 11 12 14 15 16 18 17 17 17 15 15 14 15 16 17 16 18 16 15 15 15 14 13 13
11 9 9 10 11 10 6 9 12 12 15 13 13 14 18 16 16 16 15 14 15 14 15 15 16 19 18 19 19 17 18 17 17 17 17 15 17 17 16 17 16 14 12
12 11 11 10 8 6 8 9 12 15 14 10 17 15 19 20 16 12 16 16 16 17 16 16 17 18 20 21 19 19 20 21 23 22 20 19 18 18 19 19 19 19 16
14 13 12 8 6 6 7 10 12 11 14 16 20 20 19 17 18 14 11 16 18 17 17 18 18 18 20 22 23 21 20 21 23 25 24 23 22 22 22 21 22 22 22
16 15 11 6 8 9 10 9 12 12 14 16 15 16 22 21 16 17 16 16 16 19 19 20 20 20 21 21 23 24 25 24 25 27 28 27 24 24 23 22 24 24 24
17 15 9 7 9 8 8 9 10 11 10 13 19 22 23 24 23 21 19 19 18 18 20 19 21 23 24 26 27 26 28 28 29 32 34 33 33 32 30 30 29 27 28
16 15 10 7 7 7 8 6 7 9 10 13 20 24 22 22 22 22 24 24 22 18 18 19 19 21 23 26 26 25 28 32 35 36 36 37 37 38 38 37 36 35 35
18 13 9 7 7 9 8 4 6 10 11 11 20 26 26 24 24 24 25 28 24 22 25 30 28 23 23 22 28 30 28 29 31 28 26 31 37 41 41 41 41 42 41
19 14 9 7 7 8 8 10 8 10 13 15 19 24 27 28 26 29 28 26 26 28 29 26 32 31 31 27 25 25 27 26 27 31 30 35 35 34 33 34 37 38 42
18 15 12 9 10 11 10 12 11 12 14 17 20 23 27 30 27 25 25 26 26 26 26 28 28 30 29 30 29 27 30 31 31 37 35 39 39 40 39 37 40 41 40
20 18 17 14 13 12 10 13 13 13 15 19 21 24 29 32 28 24 25 27 26 28 29 28 30 30 31 33 33 36 35 35 40 40 42 41 39 37 40 46 45 44 45
22 21 20 17 16 16 15 14 17 18 16 20 22 24 29 33 33 29 27 25 26 29 32 32 34 34 35 36 39 42 40 44 43 44 43 41 47 50 50 49 47 45 46
24 24 22 23 20 20 20 18 20 22 21 22 24 26 33 34 34 30 28 27 31 33 36 36 37 40 40 41 42 40 45 53 56 48 51 51 52 50 48 46 45 48 49
26 27 27 27 27 26 23 21 22 24 23 24 24 28 33 34 29 29 31 32 35 39 38 39 42 44 44 44 44 47 53 51 50 49 49 47 49 51 49 49 47 47 49
26 30 31 32 32 27 25 23 26 28 24 25 26 30 33 33 31 33 35 36 38 40 42 41 44 46 47 47 43 46 51 50 50 48 49 50 55 55 50 47 46 50 49
30 29 31 31 31 31 30 26 31 31 30 32 32 33 35 34 35 36 37 37 37 42 44 46 47 46 42 43 49 47 49 46 44 47 51 48 46 44 41 42 44 45 46
31 35 36 38 38 36 35 31 37 36 35 33 31 32 33 32 34 36 37 40 41 43 46 45 45 45 46 45 45 52 49 43 42 43 46 47 46 47 44 42 43 44 44

GFSMA_500_spd_030.txt.gz
Wind_Speed
10 13 13 13 13 12 11 10 10 10 9 10 11 12 13 13 13 12 10 11 9 6 6 4 1 2 2 4 2 5 7 9 14 13 9 6 4 3 4 5 4 3 3
10 12 11 11 11 11 11 10 10 8 8 7 7 8 10 11 12 12 12 11 10 9 7 6 5 6 3 7 6 6 8 12 11 15 14 11 9 6 5 5 6 5 4
9 10 10 10 10 10 10 10 9 7 5 5 2 4 6 8 9 10 10 10 10 10 9 9 6 7 6 5 6 8 12 9 7 4 11 14 15 13 10 8 7 7 6
9 9 7 9 11 10 8 7 7 5 3 3 3 2 3 4 5 5 7 8 8 8 8 7 7 6 7 9 8 7 9 11 4 10 16 10 11 17 16 13 10 9 7
8 6 6 8 9 9 7 7 7 7 6 5 4 5 4 3 2 3 5 6 7 7 8 8 8 7 7 8 10 8 7 4 4 7 10 11 14 15 16 15 14 13 10
3 3 5 8 10 8 8 8 8 8 9 9 10 11 9 6 4 3 2 4 4 5 7 8 8 8 8 9 8 10 9 8 6 5 7 10 5 11 10 11 13 12 12
1 2 5 9 10 8 8 10 11 12 11 12 11 11 12 10 9 8 6 5 5 5 6 7 8 8 9 9 10 9 10 10 8 8 7 8 8 5 8 18 9 13 14
4 6 8 10 9 8 8 9 9 12 14 16 15 13 11 11 11 12 10 8 6 7 7 9 9 9 8 10 11 12 12 11 11 10 10 9 8 7 9 9 4 17 16
5 8 10 10 10 9 9 8 10 13 13 16 16 16 17 17 15 13 13 12 11 9 9 10 10 11 12 12 12 13 14 14 13 13 12 13 11 11 11 10 10 10 9
7 9 11 11 10 9 10 8 11 11 13 15 14 14 15 19 18 14 13 13 14 13 12 12 12 12 12 12 14 15 14 15 15 14 14 13 14 14 13 14 12 13 13
9 11 11 11 10 9 8 8 10 11 14 11 14 16 17 20 18 12 11 13 15 17 15 14 15 16 16 14 13 15 17 17 18 19 18 18 18 16 16 15 15 14 15
12 12 13 10 9 5 7 8 11 12 10 12 16 17 18 17 16 14 9 9 13 16 21 22 20 19 20 20 19 15 16 18 18 19 20 21 22 22 19 18 17 16 17
12 14 15 12 7 5 6 8 9 9 10 10 10 11 15 19 16 16 15 12 11 11 13 17 21 24 25 22 21 22 19 17 18 20 20 20 21 24 26 24 23 21 20
13 16 16 14 7 6 8 7 9 9 8 8 11 12 12 12 15 15 16 16 16 16 14 13 15 19 23 27 28 25 24 23 23 22 23 24 24 26 27 28 26 23 23
16 17 16 13 9 6 8 8 9 7 8 8 10 14 16 14 11 14 17 18 18 15 13 14 16 19 19 22 27 30 29 24 23 24 26 28 30 33 34 32 31 33 30
19 17 17 15 11 8 9 11 11 6 6 8 9 15 17 18 18 17 15 19 21 18 19 19 22 20 22 22 21 23 28 27 26 28 29 25 25 25 28 33 35 35 35
21 18 18 17 13 10 10 12 11 10 8 9 11 13 17 20 22 22 21 20 23 25 24 24 26 24 24 27 25 22 23 25 27 30 29 29 27 27 29 32 33 33 36
23 21 20 18 14 12 11 11 12 14 14 12 12 16 17 20 24 25 23 21 22 23 23 25 27 29 31 31 30 29 27 25 26 28 32 33 32 33 32 32 36 38 36
25 24 21 19 15 13 11 13 14 14 15 14 13 14 17 19 24 23 24 23 23 23 22 24 28 29 31 33 36 35 34 34 34 36 33 33 34 39 42 39 37 39 40
27 27 22 22 17 16 15 14 16 15 14 13 12 14 18 19 25 27 25 23 21 22 22 25 29 32 33 34 37 39 41 41 39 38 39 37 40 43 46 41 40 44 42
26 27 25 25 21 20 20 20 20 19 18 18 15 16 17 19 23 25 21 20 20 24 27 28 31 33 34 39 41 42 44 44 42 46 45 48 49 45 43 43 44 44 43
23 27 25 25 25 24 25 24 24 22 21 20 21 20 19 22 25 22 20 21 24 27 28 29 31 35 38 41 43 44 45 47 43 41 43 47 50 46 45 45 45 45 45
23 24 26 27 27 28 29 27 28 26 25 25 27 26 23 25 25 23 23 26 27 27 29 31 34 37 40 44 47 47 46 45 44 47 43 42 46 49 50 50 52 51 49
24 25 25 27 30 30 31 31 33 31 28 29 33 31 29 27 31 26 25 28 27 29 30 34 39 42 43 45 43 41 43 44 44 44 45 45 42 42 44 45 46 46 45
27 27 30 29 31 34 35 37 39 35 32 33 37 38 36 33 30 27 28 32 33 33 35 38 42 43 44 44 39 40 42 42 39 40 42 41 41 43 45 45 46 47 45
32 32 33 32 33 35 38 41 41 38 38 39 43 43 40 38 33 30 31 34 35 36 37 41 43 43 42 38 38 37 37 37 38 37 39 41 43 45 46 43 41 42 44

GFSMA_500_spd_033.txt.gz
Wind_Speed
13 12 13 12 11 10 9 8 6 6 6 8 10 11 11 11 12 11 11 11 10 7 5 3 4 1 2 1 0 4 8 9 12 15 11 8 6 5 4 5 5 4 3
11 11 11 11 9 8 7 5 4 4 4 5 5 6 6 7 8 9 9 10 9 8 7 6 3 5 3 4 3 4 8 20 13 13 16 13 11 8 6 6 6 5 4
10 10 10 10 8 5 4 4 4 4 3 2 2 1 2 2 3 6 7 7 7 7 7 6 5 5 5 6 6 7 7 16 4 6 11 18 17 14 11 9 8 8 7
7 8 8 9 10 8 7 6 7 6 6 5 5 5 3 3 2 2 3 4 5 5 5 5 5 4 4 6 8 8 7 6 5 8 11 13 16 18 18 16 14 11 9
5 5 6 8 9 7 9 9 8 7 8 8 7 9 9 6 7 4 3 2 3 4 6 6 5 5 5 6 7 7 6 5 5 6 6 8 5 19 18 18 17 15 12
2 3 5 7 8 7 8 10 10 8 7 9 10 9 8 8 8 8 7 6 4 4 4 5 6 6 6 6 7 8 6 6 6 6 7 9 9 10 14 13 15 14 15
1 3 6 8 8 7 6 8 6 7 9 11 11 11 9 9 9 9 9 9 8 6 5 6 8 8 8 8 8 8 9 8 8 8 8 7 9 10 6 8 14 16 17
3 6 10 11 9 8 7 6 6 9 11 14 12 12 12 10 9 11 9 10 10 9 8 8 8 9 9 11 11 11 11 12 10 10 10 9 8 9 11 11 8 10 23
3 7 11 13 10 8 7 5 7 9 11 14 13 15 15 18 17 9 8 8 10 11 12 12 12 11 11 11 12 12 11 12 13 12 12 13 12 11 12 10 10 10 10
4 7 9 10 9 8 7 5 6 9 12 13 11 15 15 15 16 13 4 4 6 9 12 14 15 16 16 14 13 14 14 14 13 15 16 15 15 14 14 15 14 12 13
7 8 9 10 7 7 6 6 8 10 11 8 10 11 14 11 12 13 10 7 7 8 9 11 13 16 17 19 18 17 17 17 16 16 17 18 18 19 18 17 17 17 16
11 9 8 10 8 7 5 6 9 9 9 8 8 9 13 14 13 11 13 12 12 13 13 12 12 13 15 17 18 19 19 20 19 19 19 20 20 20 20 21 21 21 20
14 10 8 9 8 7 5 6 7 10 9 7 8 12 12 11 11 12 12 12 11 12 11 10 11 15 16 18 18 20 21 23 24 22 21 21 22 22 22 23 25 27 27
15 13 10 10 10 9 6 5 8 10 10 9 8 9 13 12 11 12 11 12 12 12 12 12 13 16 15 16 19 20 21 21 23 24 27 25 21 23 26 27 29 30 30
18 16 13 10 11 11 8 6 9 11 10 9 7 5 9 12 12 11 14 16 16 17 15 14 16 17 18 20 21 22 23 23 22 23 23 27 28 28 29 27 30 33 35
21 20 16 13 11 13 11 9 9 10 8 6 8 9 8 10 12 12 12 13 14 15 14 14 16 17 20 22 24 26 26 25 24 26 28 27 30 31 29 24 27 29 32
24 23 19 16 14 15 14 11 10 10 10 11 8 9 9 10 12 14 13 11 11 12 11 13 15 17 17 18 20 24 27 29 29 29 31 33 33 31 36 36 34 33 33
30 27 23 19 18 17 17 12 11 9 12 14 11 13 11 12 12 14 15 13 12 12 14 16 19 17 16 18 20 22 27 31 34 35 36 37 38 38 35 36 38 38 40
29 30 26 20 21 20 19 15 13 14 15 16 14 15 15 15 15 16 17 15 12 12 15 17 19 21 23 26 28 30 31 35 36 37 39 41 42 38 40 40 41 37 40
26 30 27 24 24 23 22 18 15 16 17 16 15 15 16 15 12 16 21 17 15 16 18 19 22 22 25 28 32 35 35 37 40 42 44 43 42 43 40 39 41 41 39
16 26 28 27 26 26 24 20 19 18 19 20 22 22 17 16 18 17 18 22 20 21 22 20 20 25 27 32 34 36 39 42 45 45 42 42 43 43 43 38 38 38 39
12 16 24 27 27 26 26 26 25 23 23 21 22 25 26 20 20 21 24 26 26 26 25 24 25 29 33 34 36 37 41 44 46 44 44 43 42 44 45 41 42 42 43
13 13 18 22 25 25 29 30 29 29 28 27 27 27 30 30 28 30 29 26 29 30 29 30 32 35 38 38 40 43 44 42 41 41 42 40 42 41 41 41 41 41 43
21 19 17 19 23 25 27 30 33 36 34 32 31 30 32 34 36 34 35 31 32 33 33 35 37 40 42 40 40 42 41 40 39 41 42 38 39 40 39 42 43 44 46
26 26 25 23 20 20 25 30 35 39 38 35 35 34 35 39 41 41 42 41 38 38 37 39 41 41 42 41 41 40 38 38 39 39 38 37 39 40 39 40 43 44 44
30 30 32 32 30 29 31 34 38 41 42 40 39 39 39 42 45 47 46 37 41 43 41 41 43 44 42 42 40 37 35 38 35 36 37 38 39 39 39 39 40 41 41